Overview Statistics Trail Chart Weather Telemetry Raw packets
 

This is the latest recevied weather packets stored in our database for station/object IU5JAE-13. If no packets are shown the sender has not sent any weather packets the latest 10 day(s).

<< 13 14 15 16 17 18 19 >>
Time Temp. Humidity Pressure Rain* Wind** Luminosity Snow
1788498915 21.11° C 76% 1021.3 hPa 0 mm - 17 W/m² -
1788498333 20.56° C 76% 1021.3 hPa 0 mm - 10 W/m² -
1788497730 20.56° C 76% 1021.3 hPa 0 mm - 5 W/m² -
1788497128 20.56° C 76% 1021.2 hPa 0 mm - 2 W/m² -
1788496526 20.56° C 77% 1021.2 hPa 0 mm - 0 W/m² -
1788495923 20° C 79% 1021.2 hPa 0 mm - 0 W/m² -
1788495321 20° C 80% 1021.3 hPa 0 mm - 0 W/m² -
1788494718 20° C 80% 1021.1 hPa 0 mm - 0 W/m² -
1788494116 20° C 80% 1021.3 hPa 0 mm - 0 W/m² -
1788493534 20.56° C 79% 1021.2 hPa 0 mm - 0 W/m² -
1788492931 20.56° C 76% 1021.2 hPa 0 mm - 0 W/m² -
1788492329 20.56° C 79% 1021.1 hPa 0 mm - 0 W/m² -
1788491726 21.11° C 76% 1021.3 hPa 0 mm - 0 W/m² -
1788491124 21.11° C 76% 1021.3 hPa 0 mm - 0 W/m² -
1788490521 21.11° C 76% 1021.2 hPa 0 mm - 0 W/m² -
1788489919 21.11° C 76% 1021.2 hPa 0 mm - 0 W/m² -
1788489317 21.11° C 77% 1021.2 hPa 0 mm - 0 W/m² -
1788488734 21.11° C 79% 1021.2 hPa 0 mm - 0 W/m² -
1788488132 21.11° C 78% 1021.3 hPa 0 mm - 0 W/m² -
1788487529 21.67° C 77% 1021.1 hPa 0 mm - 0 W/m² -
1788486927 21.67° C 77% 1021.2 hPa 0 mm - 0 W/m² -
1788486325 21.11° C 78% 1021.2 hPa 0 mm - 0 W/m² -
1788485722 21.67° C 77% 1021.2 hPa 0 mm - 0 W/m² -
1788485120 21.67° C 77% 1021.1 hPa 0 mm - 0 W/m² -
1788484517 21.67° C 78% 1021.1 hPa 0 mm - 0 W/m² -

* Rain latest hour (hover to see other rain measurements)
** Current wind speed in m/s (hover to see current wind gust speed)